| time (UTC) | temp F | wind direction | speed knots | gust knots | rain 1hr in | rain 24hr in | rain mn in | humidity % | barometer mb |
| 20260906233028 | 84 | 40 | 0.9 | 3.5 | 0.00 | 1.12 | 0.00 | 72 | 1012.8 |
| 20260906232829 | 84 | 35 | 0.9 | 3.5 | 0.00 | 1.12 | 0.00 | 72 | 1012.8 |
| 20260906232629 | 84 | 29 | 0.9 | 3.5 | 0.00 | 1.12 | 0.00 | 72 | 1012.9 |
| 20260906232403 | 84 | 27 | 1.7 | 4.3 | 0.00 | 1.12 | 0.00 | 72 | 1012.9 |
| 20260906232204 | 84 | 28 | 1.7 | 4.3 | 0.00 | 1.12 | 0.00 | 71 | 1012.8 |
| 20260906232003 | 84 | 35 | 1.7 | 4.3 | 0.00 | 1.12 | 0.00 | 71 | 1012.8 |
| 20260906231803 | 84 | 41 | 1.7 | 5.2 | 0.00 | 1.12 | 0.00 | 71 | 1012.9 |
| 20260906231603 | 84 | 41 | 1.7 | 5.2 | 0.00 | 1.12 | 0.00 | 71 | 1012.9 |
| 20260906231427 | 85 | 40 | 1.7 | 5.2 | 0.00 | 1.12 | 0.00 | 71 | 1012.9 |
| 20260906231203 | 85 | 48 | 1.7 | 5.2 | 0.00 | 1.12 | 0.00 | 71 | 1012.9 |
| 20260906231028 | 85 | 46 | 1.7 | 5.2 | 0.00 | 1.12 | 0.00 | 71 | 1012.9 |
| 20260906230803 | 85 | 40 | 1.7 | 4.3 | 0.00 | 1.12 | 0.00 | 70 | 1013.0 |
| 20260906230624 | 85 | 41 | 1.7 | 5.2 | 0.00 | 1.12 | 0.00 | 70 | 1012.9 |
| 20260906230425 | 85 | 40 | 2.6 | 6.1 | 0.00 | 1.12 | 0.00 | 70 | 1012.9 |
| 20260906230203 | 85 | 36 | 2.6 | 6.1 | 0.00 | 1.12 | 0.00 | 70 | 1013.0 |
| 20260906230004 | 85 | 32 | 2.6 | 6.1 | 0.00 | 1.12 | 0.00 | 70 | 1013.0 |
| 20260906225824 | 85 | 32 | 2.6 | 6.1 | 0.00 | 1.12 | 0.00 | 70 | 1012.9 |
| 20260906225603 | 85 | 30 | 1.7 | 6.1 | 0.00 | 1.12 | 0.00 | 69 | 1012.9 |
| 20260906225403 | 85 | 33 | 1.7 | 6.1 | 0.00 | 1.12 | 0.00 | 69 | 1012.9 |
| 20260906225203 | 85 | 33 | 1.7 | 5.2 | 0.00 | 1.12 | 0.00 | 70 | 1012.9 |
| 20260906225003 | 85 | 34 | 1.7 | 5.2 | 0.00 | 1.12 | 0.00 | 70 | 1012.9 |
| 20260906224803 | 85 | 35 | 1.7 | 5.2 | 0.00 | 1.12 | 0.00 | 69 | 1012.9 |
| 20260906224603 | 85 | 41 | 2.6 | 5.2 | 0.00 | 1.12 | 0.00 | 69 | 1013.0 |
| 20260906224403 | 85 | 44 | 2.6 | 7.0 | 0.00 | 1.12 | 0.00 | 69 | 1012.9 |
| 20260906224203 | 85 | 39 | 2.6 | 7.0 | 0.00 | 1.12 | 0.00 | 70 | 1012.8 |
| 20260906224003 | 85 | 39 | 2.6 | 7.0 | 0.00 | 1.12 | 0.00 | 70 | 1012.7 |
| 20260906223824 | 85 | 41 | 2.6 | 7.0 | 0.00 | 1.12 | 0.00 | 69 | 1012.8 |
| 20260906223603 | 85 | 39 | 2.6 | 7.0 | 0.00 | 1.12 | 0.00 | 69 | 1012.9 |
| 20260906223403 | 85 | 33 | 2.6 | 7.0 | 0.00 | 1.12 | 0.00 | 69 | 1012.8 |
| 20260906223203 | 85 | 38 | 2.6 | 7.0 | 0.00 | 1.12 | 0.00 | 69 | 1012.8 |
| 20260906223003 | 85 | 40 | 2.6 | 6.1 | 0.00 | 1.12 | 0.00 | 69 | 1012.8 |
| 20260906222803 | 85 | 39 | 2.6 | 6.1 | 0.00 | 1.12 | 0.00 | 69 | 1012.9 |
| 20260906222603 | 85 | 38 | 2.6 | 6.1 | 0.00 | 1.12 | 0.00 | 69 | 1012.8 |
| 20260906222403 | 86 | 37 | 2.6 | 6.1 | 0.00 | 1.12 | 0.00 | 69 | 1012.8 |
| 20260906222203 | 86 | 30 | 1.7 | 6.1 | 0.00 | 1.12 | 0.00 | 70 | 1012.8 |
| 20260906222003 | 86 | 31 | 1.7 | 6.1 | 0.00 | 1.12 | 0.00 | 70 | 1012.8 |
| 20260906221803 | 86 | 29 | 1.7 | 6.1 | 0.00 | 1.12 | 0.00 | 69 | 1012.9 |
| 20260906221603 | 86 | 25 | 1.7 | 6.1 | 0.00 | 1.12 | 0.00 | 70 | 1012.9 |
| 20260906221403 | 86 | 26 | 1.7 | 6.1 | 0.00 | 1.12 | 0.00 | 71 | 1012.9 |
| 20260906221203 | 86 | 34 | 1.7 | 6.1 | 0.00 | 1.12 | 0.00 | 71 | 1012.9 |
| 20260906221003 | 86 | 36 | 1.7 | 6.1 | 0.00 | 1.12 | 0.00 | 70 | 1012.9 |
| 20260906220824 | 86 | 33 | 2.6 | 6.1 | 0.00 | 1.12 | 0.00 | 70 | 1012.9 |
| 20260906220603 | 86 | 35 | 2.6 | 6.1 | 0.00 | 1.12 | 0.00 | 70 | 1012.9 |
| 20260906220403 | 86 | 40 | 2.6 | 6.1 | 0.00 | 1.12 | 0.00 | 71 | 1012.9 |
| 20260906220203 | 86 | 37 | 2.6 | 6.1 | 0.00 | 1.12 | 0.00 | 72 | 1012.9 |
| 20260906220003 | 86 | 38 | 2.6 | 6.1 | 0.00 | 1.12 | 0.00 | 71 | 1012.9 |
| 20260906215803 | 86 | 41 | 2.6 | 7.0 | 0.00 | 1.12 | 0.00 | 71 | 1012.9 |
| 20260906215624 | 86 | 41 | 2.6 | 7.0 | 0.00 | 1.12 | 0.00 | 71 | 1012.9 |
| 20260906215403 | 86 | 40 | 1.7 | 7.0 | 0.00 | 1.12 | 0.00 | 70 | 1012.9 |
| 20260906215224 | 86 | 39 | 1.7 | 7.0 | 0.00 | 1.12 | 0.00 | 71 | 1012.9 |
| 20260906215024 | 86 | 30 | 1.7 | 7.0 | 0.00 | 1.12 | 0.00 | 72 | 1012.9 |
| 20260906214803 | 87 | 25 | 1.7 | 7.0 | 0.00 | 1.12 | 0.00 | 73 | 1012.9 |
| 20260906214624 | 87 | 23 | 1.7 | 7.0 | 0.00 | 1.12 | 0.00 | 72 | 1012.8 |
| 20260906214403 | 87 | 20 | 1.7 | 6.1 | 0.00 | 1.12 | 0.00 | 72 | 1012.9 |
| 20260906214203 | 87 | 23 | 1.7 | 6.1 | 0.00 | 1.12 | 0.00 | 71 | 1012.8 |
| 20260906214003 | 87 | 36 | 1.7 | 7.0 | 0.00 | 1.12 | 0.00 | 72 | 1012.8 |
| 20260906213803 | 87 | 33 | 1.7 | 7.0 | 0.00 | 1.12 | 0.00 | 71 | 1012.8 |
| 20260906213603 | 87 | 37 | 1.7 | 7.0 | 0.00 | 1.12 | 0.00 | 72 | 1012.8 |
| 20260906213403 | 87 | 39 | 1.7 | 7.0 | 0.00 | 1.12 | 0.00 | 71 | 1012.8 |
| 20260906213203 | 87 | 44 | 1.7 | 7.0 | 0.00 | 1.12 | 0.00 | 70 | 1012.7 |
| 20260906213024 | 87 | 43 | 1.7 | 6.1 | 0.00 | 1.12 | 0.00 | 71 | 1012.7 |
| 20260906212803 | 87 | 49 | 1.7 | 6.1 | 0.00 | 1.12 | 0.00 | 72 | 1012.5 |
| 20260906212603 | 87 | 43 | 2.6 | 7.0 | 0.00 | 1.12 | 0.00 | 71 | 1012.5 |
| 20260906212403 | 87 | 34 | 2.6 | 7.0 | 0.00 | 1.12 | 0.00 | 71 | 1012.5 |
| 20260906212203 | 87 | 32 | 2.6 | 7.0 | 0.00 | 1.12 | 0.00 | 70 | 1012.5 |
| 20260906212003 | 87 | 32 | 2.6 | 7.0 | 0.00 | 1.12 | 0.00 | 69 | 1012.6 |
| 20260906211803 | 87 | 28 | 2.6 | 7.8 | 0.00 | 1.12 | 0.00 | 69 | 1012.6 |
| 20260906211603 | 87 | 31 | 2.6 | 7.8 | 0.00 | 1.12 | 0.00 | 71 | 1012.6 |
| 20260906211403 | 87 | 37 | 2.6 | 7.8 | 0.00 | 1.12 | 0.00 | 71 | 1012.6 |
| 20260906211203 | 87 | 36 | 2.6 | 7.8 | 0.00 | 1.12 | 0.00 | 72 | 1012.5 |
| 20260906211003 | 87 | 34 | 2.6 | 7.8 | 0.00 | 1.12 | 0.00 | 71 | 1012.5 |
| 20260906210803 | 87 | 35 | 2.6 | 7.0 | 0.00 | 1.12 | 0.00 | 72 | 1012.5 |
| 20260906210603 | 87 | 36 | 2.6 | 7.0 | 0.00 | 1.12 | 0.00 | 72 | 1012.5 |
| 20260906210403 | 87 | 32 | 2.6 | 7.0 | 0.00 | 1.12 | 0.00 | 72 | 1012.5 |
| 20260906210203 | 87 | 27 | 2.6 | 7.0 | 0.00 | 1.12 | 0.00 | 70 | 1012.5 |
| 20260906210004 | 87 | 30 | 2.6 | 6.1 | 0.00 | 1.12 | 0.00 | 71 | 1012.6 |
| 20260906205803 | 87 | 33 | 2.6 | 6.1 | 0.00 | 1.12 | 0.00 | 72 | 1012.7 |
| 20260906205603 | 87 | 34 | 2.6 | 5.2 | 0.00 | 1.12 | 0.00 | 72 | 1012.7 |
| 20260906205403 | 87 | 33 | 2.6 | 5.2 | 0.00 | 1.12 | 0.00 | 70 | 1012.8 |
| 20260906205203 | 88 | 40 | 2.6 | 5.2 | 0.00 | 1.12 | 0.00 | 70 | 1012.8 |
| 20260906205003 | 88 | 38 | 2.6 | 5.2 | 0.00 | 1.12 | 0.00 | 70 | 1012.8 |
| 20260906204803 | 88 | 29 | 2.6 | 6.1 | 0.00 | 1.12 | 0.00 | 71 | 1012.8 |
| 20260906204603 | 87 | 34 | 2.6 | 6.1 | 0.00 | 1.12 | 0.00 | 72 | 1012.7 |
| 20260906204403 | 87 | 44 | 2.6 | 6.1 | 0.00 | 1.12 | 0.00 | 72 | 1012.6 |
| 20260906204203 | 87 | 46 | 2.6 | 6.1 | 0.00 | 1.12 | 0.00 | 72 | 1012.6 |
| 20260906204003 | 87 | 42 | 2.6 | 6.1 | 0.00 | 1.12 | 0.00 | 72 | 1012.7 |
| 20260906203803 | 87 | 47 | 2.6 | 5.2 | 0.00 | 1.12 | 0.00 | 72 | 1012.7 |
| 20260906203624 | 87 | 45 | 2.6 | 5.2 | 0.00 | 1.12 | 0.00 | 72 | 1012.7 |
| 20260906203424 | 87 | 42 | 2.6 | 5.2 | 0.00 | 1.12 | 0.00 | 72 | 1012.8 |
| 20260906203203 | 87 | 46 | 2.6 | 6.1 | 0.00 | 1.12 | 0.00 | 71 | 1012.8 |
| 20260906203003 | 87 | 44 | 2.6 | 6.1 | 0.00 | 1.12 | 0.00 | 71 | 1012.8 |
| 20260906202803 | 88 | 48 | 2.6 | 6.1 | 0.00 | 1.12 | 0.00 | 72 | 1012.9 |
| 20260906202603 | 88 | 54 | 2.6 | 6.1 | 0.00 | 1.12 | 0.00 | 72 | 1012.9 |
| 20260906202403 | 88 | 54 | 2.6 | 6.1 | 0.00 | 1.12 | 0.00 | 72 | 1012.8 |
| 20260906202203 | 88 | 44 | 2.6 | 6.1 | 0.00 | 1.12 | 0.00 | 72 | 1012.8 |
| 20260906202003 | 88 | 47 | 2.6 | 6.1 | 0.00 | 1.12 | 0.00 | 72 | 1012.9 |
| 20260906201803 | 87 | 43 | 2.6 | 6.1 | 0.00 | 1.12 | 0.00 | 73 | 1012.9 |
| 20260906201603 | 87 | 36 | 2.6 | 6.1 | 0.00 | 1.12 | 0.00 | 73 | 1013.0 |
| 20260906201403 | 88 | 33 | 2.6 | 5.2 | 0.00 | 1.12 | 0.00 | 72 | 1013.0 |
| 20260906201203 | 88 | 33 | 2.6 | 5.2 | 0.00 | 1.12 | 0.00 | 72 | 1013.0 |
| 20260906201003 | 88 | 35 | 2.6 | 5.2 | 0.00 | 1.12 | 0.00 | 73 | 1013.1 |
| 20260906200824 | 87 | 41 | 2.6 | 5.2 | 0.00 | 1.12 | 0.00 | 75 | 1013.0 |
| 20260906200603 | 87 | 38 | 2.6 | 5.2 | 0.00 | 1.12 | 0.00 | 74 | 1013.1 |
| 20260906200403 | 87 | 42 | 2.6 | 7.0 | 0.00 | 1.12 | 0.00 | 74 | 1013.1 |
| 20260906200203 | 87 | 42 | 1.7 | 7.0 | 0.00 | 1.12 | 0.00 | 73 | 1013.1 |
| 20260906200003 | 88 | 43 | 1.7 | 7.0 | 0.00 | 1.12 | 0.00 | 73 | 1013.1 |
| 20260906195803 | 88 | 39 | 1.7 | 7.0 | 0.00 | 1.12 | 0.00 | 74 | 1013.1 |
| 20260906195603 | 88 | 36 | 2.6 | 7.0 | 0.00 | 1.12 | 0.00 | 74 | 1013.0 |
| 20260906195403 | 87 | 35 | 2.6 | 5.2 | 0.00 | 1.12 | 0.00 | 73 | 1013.1 |
| 20260906195203 | 87 | 44 | 2.6 | 6.1 | 0.00 | 1.12 | 0.00 | 74 | 1013.1 |
| 20260906195003 | 87 | 45 | 2.6 | 6.1 | 0.00 | 1.12 | 0.00 | 73 | 1013.1 |
| 20260906194803 | 87 | 48 | 2.6 | 6.1 | 0.00 | 1.12 | 0.00 | 73 | 1013.1 |
| 20260906194603 | 88 | 41 | 2.6 | 7.0 | 0.00 | 1.12 | 0.00 | 72 | 1013.1 |
| 20260906194403 | 88 | 41 | 2.6 | 7.0 | 0.00 | 1.12 | 0.00 | 72 | 1013.2 |
| 20260906194203 | 88 | 36 | 2.6 | 7.0 | 0.00 | 1.12 | 0.00 | 74 | 1013.2 |
| 20260906194003 | 88 | 32 | 2.6 | 7.0 | 0.00 | 1.12 | 0.00 | 74 | 1013.2 |
| 20260906193803 | 88 | 35 | 2.6 | 7.0 | 0.00 | 1.12 | 0.00 | 75 | 1013.2 |
| 20260906193603 | 87 | 43 | 2.6 | 6.1 | 0.00 | 1.12 | 0.00 | 74 | 1013.2 |
| 20260906193424 | 88 | 42 | 2.6 | 6.1 | 0.00 | 1.12 | 0.00 | 74 | 1013.2 |
| 20260906193203 | 88 | 39 | 2.6 | 7.0 | 0.00 | 1.12 | 0.00 | 73 | 1013.2 |
| 20260906193003 | 88 | 40 | 2.6 | 7.0 | 0.00 | 1.12 | 0.00 | 74 | 1013.1 |
| 20260906192803 | 88 | 35 | 2.6 | 7.0 | 0.00 | 1.12 | 0.00 | 74 | 1013.1 |
| 20260906192603 | 88 | 37 | 2.6 | 7.0 | 0.00 | 1.12 | 0.00 | 74 | 1013.1 |
| 20260906192403 | 88 | 35 | 1.7 | 7.0 | 0.00 | 1.12 | 0.00 | 73 | 1013.2 |
| 20260906192203 | 89 | 36 | 1.7 | 7.0 | 0.00 | 1.12 | 0.00 | 73 | 1013.1 |
| 20260906192024 | 89 | 46 | 1.7 | 7.0 | 0.00 | 1.12 | 0.00 | 74 | 1013.1 |
| 20260906191824 | 89 | 55 | 1.7 | 7.0 | 0.00 | 1.12 | 0.00 | 73 | 1013.1 |
| 20260906191603 | 89 | 48 | 1.7 | 7.0 | 0.00 | 1.12 | 0.00 | 73 | 1013.1 |
| 20260906191403 | 89 | 50 | 1.7 | 7.0 | 0.00 | 1.12 | 0.00 | 73 | 1013.1 |
| 20260906191203 | 89 | 49 | 1.7 | 7.0 | 0.00 | 1.12 | 0.00 | 72 | 1013.1 |
| 20260906191003 | 89 | 42 | 1.7 | 7.0 | 0.00 | 1.12 | 0.00 | 71 | 1013.2 |
| 20260906190803 | 89 | 35 | 1.7 | 7.0 | 0.00 | 1.12 | 0.00 | 72 | 1013.2 |
| 20260906190624 | 89 | 30 | 1.7 | 5.2 | 0.00 | 1.12 | 0.00 | 72 | 1013.1 |
| 20260906190403 | 89 | 22 | 1.7 | 5.2 | 0.00 | 1.12 | 0.00 | 71 | 1013.2 |
| 20260906190203 | 89 | 26 | 1.7 | 7.0 | 0.00 | 1.12 | 0.00 | 71 | 1013.1 |
| 20260906190003 | 89 | 39 | 1.7 | 7.0 | 0.00 | 1.12 | 0.00 | 73 | 1013.2 |
| 20260906185803 | 89 | 34 | 1.7 | 7.0 | 0.00 | 1.12 | 0.00 | 72 | 1013.1 |
| 20260906185603 | 89 | 44 | 1.7 | 7.0 | 0.00 | 1.12 | 0.00 | 71 | 1013.2 |
| 20260906185403 | 89 | 50 | 1.7 | 7.0 | 0.00 | 1.12 | 0.00 | 72 | 1013.2 |
| 20260906185203 | 89 | 44 | 1.7 | 6.1 | 0.00 | 1.12 | 0.00 | 73 | 1013.2 |
| 20260906185003 | 89 | 43 | 1.7 | 6.1 | 0.00 | 1.12 | 0.00 | 72 | 1013.1 |
| 20260906184803 | 89 | 40 | 1.7 | 6.1 | 0.00 | 1.12 | 0.00 | 73 | 1013.2 |
| 20260906184624 | 89 | 41 | 1.7 | 6.1 | 0.00 | 1.12 | 0.00 | 72 | 1013.2 |
| 20260906184424 | 89 | 39 | 1.7 | 6.1 | 0.00 | 1.12 | 0.00 | 73 | 1013.1 |
| 20260906184203 | 89 | 36 | 1.7 | 6.1 | 0.00 | 1.12 | 0.00 | 72 | 1013.1 |
| 20260906184003 | 89 | 35 | 1.7 | 6.1 | 0.00 | 1.12 | 0.00 | 69 | 1013.0 |
| 20260906183803 | 89 | 42 | 1.7 | 5.2 | 0.00 | 1.12 | 0.00 | 72 | 1013.0 |
| 20260906183603 | 89 | 47 | 1.7 | 5.2 | 0.00 | 1.12 | 0.00 | 72 | 1013.0 |
| 20260906183403 | 89 | 40 | 1.7 | 5.2 | 0.00 | 1.12 | 0.00 | 71 | 1013.1 |
| 20260906183203 | 89 | 48 | 1.7 | 5.2 | 0.00 | 1.12 | 0.00 | 73 | 1013.1 |
| 20260906183003 | 89 | 48 | 1.7 | 5.2 | 0.00 | 1.12 | 0.00 | 72 | 1013.0 |
| 20260906182803 | 89 | 43 | 1.7 | 5.2 | 0.00 | 1.12 | 0.00 | 73 | 1013.0 |
| 20260906182624 | 89 | 37 | 1.7 | 5.2 | 0.00 | 1.12 | 0.00 | 74 | 1013.1 |
| 20260906182403 | 89 | 46 | 1.7 | 7.0 | 0.00 | 1.12 | 0.00 | 73 | 1013.0 |
| 20260906182203 | 89 | 44 | 1.7 | 7.0 | 0.00 | 1.12 | 0.00 | 73 | 1013.1 |
| 20260906182003 | 89 | 42 | 1.7 | 7.0 | 0.00 | 1.12 | 0.00 | 73 | 1013.2 |
| 20260906181803 | 89 | 48 | 1.7 | 7.0 | 0.00 | 1.12 | 0.00 | 73 | 1013.1 |
| 20260906181603 | 89 | 52 | 1.7 | 7.0 | 0.00 | 1.12 | 0.00 | 72 | 1013.2 |
| 20260906181403 | 89 | 53 | 1.7 | 4.3 | 0.00 | 1.12 | 0.00 | 74 | 1013.2 |
| 20260906181203 | 89 | 50 | 1.7 | 4.3 | 0.00 | 1.12 | 0.00 | 73 | 1013.1 |
| 20260906181003 | 89 | 48 | 2.6 | 4.3 | 0.00 | 1.12 | 0.00 | 72 | 1013.2 |
| 20260906180824 | 89 | 47 | 2.6 | 5.2 | 0.00 | 1.12 | 0.00 | 72 | 1013.2 |
| 20260906180603 | 89 | 43 | 2.6 | 5.2 | 0.00 | 1.12 | 0.00 | 73 | 1013.3 |
| 20260906180424 | 89 | 35 | 2.6 | 5.2 | 0.00 | 1.12 | 0.00 | 73 | 1013.3 |
| 20260906180203 | 88 | 32 | 1.7 | 5.2 | 0.00 | 1.12 | 0.00 | 74 | 1013.3 |
| 20260906180003 | 89 | 31 | 1.7 | 5.2 | 0.00 | 1.12 | 0.00 | 74 | 1013.3 |
| 20260906175824 | 89 | 25 | 1.7 | 5.2 | 0.00 | 1.12 | 0.00 | 75 | 1013.3 |
| 20260906175624 | 89 | 23 | 1.7 | 5.2 | 0.00 | 1.12 | 0.00 | 74 | 1013.4 |
| 20260906175403 | 89 | 24 | 1.7 | 5.2 | 0.00 | 1.12 | 0.00 | 74 | 1013.4 |
| 20260906175203 | 89 | 23 | 1.7 | 4.3 | 0.00 | 1.12 | 0.00 | 72 | 1013.4 |
| 20260906175003 | 89 | 27 | 1.7 | 4.3 | 0.00 | 1.12 | 0.00 | 73 | 1013.4 |
| 20260906174803 | 89 | 51 | 1.7 | 6.1 | 0.00 | 1.12 | 0.00 | 75 | 1013.5 |
| 20260906174603 | 89 | 50 | 1.7 | 6.1 | 0.00 | 1.12 | 0.00 | 74 | 1013.5 |
| 20260906174403 | 89 | 53 | 1.7 | 6.1 | 0.00 | 1.12 | 0.00 | 74 | 1013.5 |
| 20260906174204 | 89 | 54 | 1.7 | 6.1 | 0.00 | 1.12 | 0.00 | 74 | 1013.5 |
| 20260906174003 | 89 | 49 | 1.7 | 6.1 | 0.00 | 1.12 | 0.00 | 73 | 1013.6 |
| 20260906173803 | 89 | 52 | 1.7 | 6.1 | 0.00 | 1.12 | 0.00 | 74 | 1013.6 |
| 20260906173603 | 89 | 53 | 1.7 | 5.2 | 0.00 | 1.12 | 0.00 | 75 | 1013.6 |
| 20260906173424 | 89 | 46 | 1.7 | 5.2 | 0.00 | 1.12 | 0.00 | 75 | 1013.6 |
| 20260906173203 | 89 | 41 | 1.7 | 7.0 | 0.00 | 1.12 | 0.00 | 75 | 1013.6 |
| 20260906173003 | 88 | 39 | 1.7 | 7.0 | 0.00 | 1.12 | 0.00 | 77 | 1013.6 |
| 20260906172803 | 88 | 34 | 1.7 | 7.0 | 0.00 | 1.12 | 0.00 | 76 | 1013.6 |
| 20260906172603 | 88 | 32 | 0.9 | 7.0 | 0.00 | 1.12 | 0.00 | 75 | 1013.7 |
| 20260906172403 | 88 | 31 | 0.9 | 7.0 | 0.00 | 1.12 | 0.00 | 75 | 1013.7 |
| 20260906172203 | 89 | 32 | 0.9 | 6.1 | 0.00 | 1.12 | 0.00 | 75 | 1013.7 |
| 20260906172024 | 89 | 31 | 0.9 | 6.1 | 0.00 | 1.12 | 0.00 | 75 | 1013.6 |
| 20260906171803 | 89 | 22 | 0.9 | 4.3 | 0.00 | 1.12 | 0.00 | 75 | 1013.5 |
| 20260906171603 | 89 | 34 | 0.9 | 3.5 | 0.00 | 1.12 | 0.00 | 75 | 1013.5 |
| 20260906171403 | 89 | 42 | 0.9 | 3.5 | 0.00 | 1.12 | 0.00 | 75 | 1013.4 |
| 20260906171203 | 89 | 40 | 0.9 | 3.5 | 0.00 | 1.12 | 0.00 | 74 | 1013.5 |
| 20260906171003 | 89 | 42 | 0.9 | 3.5 | 0.00 | 1.12 | 0.00 | 74 | 1013.5 |
| 20260906170824 | 89 | 48 | 0.9 | 3.5 | 0.00 | 1.12 | 0.00 | 75 | 1013.5 |
| 20260906170603 | 89 | 50 | 0.9 | 4.3 | 0.00 | 1.12 | 0.00 | 76 | 1013.6 |
| 20260906170403 | 89 | 49 | 0.9 | 4.3 | 0.00 | 1.12 | 0.00 | 75 | 1013.6 |
| 20260906170224 | 89 | 50 | 0.9 | 4.3 | 0.00 | 1.12 | 0.00 | 77 | 1013.6 |
| 20260906170003 | 89 | 48 | 0.9 | 4.3 | 0.00 | 1.12 | 0.00 | 76 | 1013.6 |
| 20260906165824 | 89 | 44 | 0.9 | 4.3 | 0.00 | 1.12 | 0.00 | 75 | 1013.6 |
| 20260906165603 | 88 | 40 | 1.7 | 3.5 | 0.00 | 1.12 | 0.00 | 76 | 1013.6 |
| 20260906165403 | 88 | 45 | 1.7 | 3.5 | 0.00 | 1.12 | 0.00 | 77 | 1013.6 |
| 20260906165203 | 88 | 44 | 1.7 | 3.5 | 0.00 | 1.12 | 0.00 | 75 | 1013.7 |
| 20260906165003 | 88 | 45 | 1.7 | 3.5 | 0.00 | 1.12 | 0.00 | 75 | 1013.7 |
| 20260906164803 | 88 | 43 | 1.7 | 6.1 | 0.00 | 1.12 | 0.00 | 76 | 1013.7 |
| 20260906164603 | 88 | 42 | 1.7 | 6.1 | 0.00 | 1.12 | 0.00 | 77 | 1013.7 |
| 20260906164424 | 88 | 38 | 1.7 | 6.1 | 0.00 | 1.12 | 0.00 | 76 | 1013.7 |
| 20260906164203 | 88 | 39 | 0.9 | 6.1 | 0.00 | 1.12 | 0.00 | 75 | 1013.7 |
| 20260906164024 | 88 | 43 | 0.9 | 6.1 | 0.00 | 1.12 | 0.00 | 75 | 1013.8 |
| 20260906163803 | 88 | 48 | 1.7 | 5.2 | 0.00 | 1.12 | 0.00 | 76 | 1013.8 |
| 20260906163603 | 88 | 44 | 1.7 | 5.2 | 0.00 | 1.12 | 0.00 | 75 | 1013.8 |
| 20260906163403 | 88 | 49 | 1.7 | 4.3 | 0.00 | 1.12 | 0.00 | 75 | 1013.9 |
| 20260906163203 | 88 | 47 | 1.7 | 4.3 | 0.00 | 1.12 | 0.00 | 75 | 1013.9 |
| 20260906163024 | 88 | 43 | 1.7 | 4.3 | 0.00 | 1.12 | 0.00 | 76 | 1013.9 |
| 20260906162803 | 88 | 45 | 1.7 | 4.3 | 0.00 | 1.12 | 0.00 | 75 | 1013.9 |
| 20260906162603 | 87 | 51 | 1.7 | 4.3 | 0.00 | 1.12 | 0.00 | 75 | 1013.9 |
| 20260906162403 | 88 | 49 | 1.7 | 4.3 | 0.00 | 1.12 | 0.00 | 74 | 1013.9 |
| 20260906162203 | 88 | 49 | 1.7 | 4.3 | 0.00 | 1.12 | 0.00 | 74 | 1014.0 |
| 20260906162003 | 88 | 49 | 1.7 | 4.3 | 0.00 | 1.12 | 0.00 | 74 | 1014.0 |
| 20260906161803 | 88 | 51 | 1.7 | 4.3 | 0.00 | 1.12 | 0.00 | 74 | 1013.9 |
| 20260906161603 | 88 | 47 | 1.7 | 5.2 | 0.00 | 1.12 | 0.00 | 74 | 1014.0 |
| 20260906161403 | 88 | 47 | 0.9 | 6.1 | 0.00 | 1.12 | 0.00 | 74 | 1013.9 |
| 20260906161224 | 88 | 50 | 0.9 | 6.1 | 0.00 | 1.12 | 0.00 | 74 | 1014.0 |
| 20260906161003 | 88 | 49 | 0.9 | 6.1 | 0.00 | 1.12 | 0.00 | 75 | 1014.0 |
| 20260906160803 | 88 | 39 | 0.9 | 6.1 | 0.00 | 1.12 | 0.00 | 75 | 1014.0 |
| 20260906160603 | 88 | 41 | 0.9 | 6.1 | 0.00 | 1.12 | 0.00 | 75 | 1014.0 |
| 20260906160403 | 88 | 40 | 0.9 | 2.6 | 0.00 | 1.12 | 0.00 | 75 | 1013.9 |
| 20260906160203 | 88 | 38 | 0.9 | 2.6 | 0.00 | 1.12 | 0.00 | 74 | 1014.0 |
| 20260906160024 | 88 | 40 | 1.7 | 2.6 | 0.00 | 1.12 | 0.00 | 75 | 1014.0 |
| 20260906155824 | 88 | 46 | 1.7 | 2.6 | 0.00 | 1.12 | 0.00 | 75 | 1014.1 |
| 20260906155603 | 87 | 44 | 1.7 | 4.3 | 0.00 | 1.12 | 0.00 | 77 | 1014.1 |
| 20260906155403 | 87 | 38 | 1.7 | 4.3 | 0.00 | 1.12 | 0.00 | 76 | 1014.1 |
| 20260906155203 | 87 | 27 | 1.7 | 6.1 | 0.00 | 1.12 | 0.00 | 77 | 1014.1 |
| 20260906155003 | 87 | 19 | 1.7 | 6.1 | 0.00 | 1.12 | 0.00 | 76 | 1014.1 |
| 20260906154803 | 87 | 352 | 1.7 | 6.1 | 0.00 | 1.12 | 0.00 | 75 | 1014.0 |
| 20260906154603 | 87 | 353 | 1.7 | 6.1 | 0.00 | 1.12 | 0.00 | 76 | 1014.0 |
| 20260906154403 | 87 | 6 | 1.7 | 6.1 | 0.00 | 1.12 | 0.00 | 75 | 1014.0 |
| 20260906154203 | 86 | 30 | 1.7 | 5.2 | 0.00 | 1.12 | 0.00 | 75 | 1014.0 |
| 20260906154024 | 86 | 37 | 1.7 | 6.1 | 0.00 | 1.12 | 0.00 | 74 | 1014.0 |
| 20260906153803 | 86 | 46 | 1.7 | 6.1 | 0.00 | 1.12 | 0.00 | 76 | 1014.1 |
| 20260906153603 | 86 | 45 | 0.9 | 6.1 | 0.00 | 1.12 | 0.00 | 76 | 1014.1 |
| 20260906153403 | 86 | 37 | 0.9 | 6.1 | 0.00 | 1.12 | 0.00 | 75 | 1014.1 |
| 20260906153203 | 86 | 34 | 0.9 | 6.1 | 0.00 | 1.12 | 0.00 | 76 | 1014.1 |
| 20260906153003 | 86 | 30 | 0.9 | 4.3 | 0.00 | 1.12 | 0.00 | 75 | 1014.1 |
| 20260906152803 | 86 | 34 | 0.9 | 4.3 | 0.00 | 1.12 | 0.00 | 77 | 1014.1 |
| 20260906152603 | 86 | 39 | 0.9 | 4.3 | 0.00 | 1.12 | 0.00 | 77 | 1014.1 |
| 20260906152424 | 86 | 48 | 0.9 | 4.3 | 0.00 | 1.12 | 0.00 | 79 | 1014.1 |
| 20260906152224 | 86 | 58 | 0.9 | 4.3 | 0.00 | 1.12 | 0.00 | 79 | 1014.0 |
| 20260906152003 | 86 | 50 | 0.9 | 2.6 | 0.00 | 1.12 | 0.00 | 79 | 1014.1 |
| 20260906151824 | 86 | 53 | 0.9 | 2.6 | 0.00 | 1.12 | 0.00 | 80 | 1014.0 |
| 20260906151603 | 86 | 59 | 0.9 | 3.5 | 0.00 | 1.12 | 0.00 | 81 | 1014.0 |
| 20260906151403 | 85 | 62 | 0.9 | 3.5 | 0.00 | 1.12 | 0.00 | 81 | 1014.0 |
| 20260906151203 | 85 | 55 | 0.0 | 3.5 | 0.00 | 1.12 | 0.00 | 82 | 1014.0 |
| 20260906151003 | 85 | 50 | 0.0 | 3.5 | 0.00 | 1.12 | 0.00 | 81 | 1014.0 |
| 20260906150803 | 85 | 42 | 0.0 | 3.5 | 0.00 | 1.12 | 0.00 | 81 | 1014.1 |
| 20260906150624 | 85 | 10 | 0.0 | 3.5 | 0.00 | 1.12 | 0.00 | 81 | 1014.0 |
| 20260906150403 | 85 | 270 | 0.0 | 1.7 | 0.00 | 1.12 | 0.00 | 80 | 1014.0 |
| 20260906150203 | 85 | 72 | 0.0 | 1.7 | 0.00 | 1.12 | 0.00 | 84 | 1013.9 |
| 20260906150003 | 84 | 54 | 0.0 | 2.6 | 0.00 | 1.12 | 0.00 | 84 | 1013.9 |
| 20260906145824 | 84 | 49 | 0.0 | 2.6 | 0.00 | 1.12 | 0.00 | 84 | 1013.9 |
| 20260906145603 | 84 | 36 | 0.0 | 2.6 | 0.00 | 1.12 | 0.00 | 85 | 1013.9 |
| 20260906145403 | 83 | 37 | 0.0 | 2.6 | 0.00 | 1.12 | 0.00 | 85 | 1013.9 |
| 20260906145203 | 83 | 46 | 0.9 | 2.6 | 0.00 | 1.12 | 0.00 | 85 | 1013.9 |
| 20260906145003 | 83 | 49 | 0.9 | 1.7 | 0.00 | 1.12 | 0.00 | 86 | 1013.9 |
| 20260906144803 | 82 | 43 | 0.9 | 2.6 | 0.00 | 1.12 | 0.00 | 86 | 1013.9 |
| 20260906144603 | 82 | 47 | 0.9 | 2.6 | 0.00 | 1.12 | 0.00 | 87 | 1013.9 |
| 20260906144403 | 82 | 47 | 0.9 | 2.6 | 0.00 | 1.12 | 0.00 | 86 | 1013.9 |
| 20260906144203 | 82 | 45 | 0.9 | 3.5 | 0.00 | 1.12 | 0.00 | 87 | 1013.9 |
| 20260906144024 | 82 | 44 | 0.9 | 3.5 | 0.00 | 1.12 | 0.00 | 85 | 1014.0 |
| 20260906143803 | 82 | 46 | 0.9 | 3.5 | 0.00 | 1.12 | 0.00 | 87 | 1014.0 |
| 20260906143624 | 82 | 42 | 0.0 | 3.5 | 0.00 | 1.12 | 0.00 | 87 | 1014.1 |
| 20260906143403 | 81 | 43 | 0.0 | 3.5 | 0.00 | 1.12 | 0.00 | 87 | 1014.1 |
| 20260906143203 | 81 | 55 | 0.0 | 2.6 | 0.00 | 1.12 | 0.00 | 87 | 1014.1 |
| 20260906143003 | 81 | 57 | 0.0 | 2.6 | 0.00 | 1.12 | 0.00 | 87 | 1014.1 |
| 20260906142803 | 81 | 59 | 0.0 | 2.6 | 0.00 | 1.12 | 0.00 | 88 | 1014.1 |
| 20260906142624 | 81 | 78 | 0.0 | 2.6 | 0.00 | 1.12 | 0.00 | 88 | 1014.1 |
| 20260906142403 | 81 | 101 | 0.0 | 0.9 | 0.00 | 1.12 | 0.00 | 88 | 1014.1 |
| 20260906142203 | 81 | 84 | 0.0 | 0.9 | 0.00 | 1.12 | 0.00 | 90 | 1014.0 |
| 20260906142003 | 81 | 107 | 0.0 | 0.9 | 0.00 | 1.12 | 0.00 | 90 | 1014.1 |
| 20260906141803 | 81 | 104 | 0.0 | 0.9 | 0.00 | 1.12 | 0.00 | 89 | 1014.1 |
| 20260906141603 | 81 | 75 | 0.0 | 0.9 | 0.00 | 1.12 | 0.00 | 90 | 1014.1 |
| 20260906141403 | 80 | 75 | 0.0 | 0.9 | 0.00 | 1.12 | 0.00 | 90 | 1014.1 |
| 20260906141203 | 81 | 65 | 0.0 | 0.9 | 0.00 | 1.12 | 0.00 | 89 | 1014.1 |
| 20260906141003 | 81 | 60 | 0.0 | 0.9 | 0.00 | 1.12 | 0.00 | 90 | 1014.1 |
| 20260906140803 | 81 | 48 | 0.0 | 0.9 | 0.00 | 1.12 | 0.00 | 93 | 1014.1 |
| 20260906140603 | 80 | 43 | 0.0 | 0.9 | 0.00 | 1.12 | 0.00 | 94 | 1014.1 |
| 20260906140403 | 80 | 44 | 0.0 | 0.9 | 0.00 | 1.12 | 0.00 | 93 | 1014.1 |
| 20260906140203 | 80 | 44 | 0.0 | 0.9 | 0.00 | 1.12 | 0.00 | 92 | 1014.2 |
| 20260906140003 | 80 | 46 | 0.0 | 0.9 | 0.00 | 1.12 | 0.00 | 94 | 1014.2 |
| 20260906135803 | 79 | 46 | 0.0 | 0.9 | 0.00 | 1.12 | 0.00 | 95 | 1014.3 |
| 20260906135603 | 79 | 46 | 0.0 | 0.9 | 0.00 | 1.12 | 0.00 | 97 | 1014.2 |
| 20260906135424 | 79 | 46 | 0.0 | 0.9 | 0.00 | 1.12 | 0.00 | 97 | 1014.2 |
| 20260906135203 | 78 | 46 | 0.0 | 0.9 | 0.00 | 1.12 | 0.00 | 97 | 1014.3 |
| 20260906135003 | 78 | 46 | 0.0 | 0.9 | 0.00 | 1.12 | 0.00 | 96 | 1014.3 |
| 20260906134803 | 77 | 46 | 0.0 | 0.9 | 0.00 | 1.12 | 0.00 | 95 | 1014.3 |
| 20260906134603 | 77 | 0 | 0.0 | 0.0 | 0.00 | 1.12 | 0.00 | 96 | 1014.4 |
| 20260906134403 | 77 | 0 | 0.0 | 0.0 | 0.00 | 1.12 | 0.00 | 96 | 1014.4 |
| 20260906134203 | 77 | 0 | 0.0 | 0.0 | 0.00 | 1.12 | 0.00 | 96 | 1014.3 |
| 20260906134003 | 77 | 0 | 0.0 | 0.0 | 0.00 | 1.12 | 0.00 | 96 | 1014.4 |
| 20260906133803 | 77 | 0 | 0.0 | 0.0 | 0.00 | 1.12 | 0.00 | 96 | 1014.4 |
| 20260906133603 | 77 | 0 | 0.0 | 0.0 | 0.00 | 1.12 | 0.00 | 96 | 1014.4 |
| 20260906133403 | 77 | 0 | 0.0 | 0.0 | 0.00 | 1.12 | 0.00 | 97 | 1014.4 |
| 20260906133224 | 76 | 46 | 0.0 | 0.9 | 0.00 | 1.12 | 0.00 | 97 | 1014.4 |
| 20260906133003 | 76 | 46 | 0.0 | 0.9 | 0.00 | 1.12 | 0.00 | 98 | 1014.5 |
| 20260906132803 | 76 | 38 | 0.0 | 0.9 | 0.00 | 1.12 | 0.00 | 98 | 1014.5 |
| 20260906132603 | 76 | 31 | 0.0 | 0.9 | 0.00 | 1.12 | 0.00 | 98 | 1014.5 |
| 20260906132404 | 76 | 31 | 0.0 | 0.9 | 0.00 | 1.12 | 0.00 | 98 | 1014.5 |
| 20260906132224 | 76 | 29 | 0.0 | 0.9 | 0.00 | 1.12 | 0.00 | 98 | 1014.5 |
| 20260906132003 | 75 | 27 | 0.0 | 0.9 | 0.00 | 1.12 | 0.00 | 99 | 1014.5 |
| 20260906131803 | 75 | 27 | 0.0 | 0.9 | 0.00 | 1.12 | 0.00 | 98 | 1014.5 |
| 20260906131603 | 75 | 27 | 0.0 | 0.9 | 0.00 | 1.12 | 0.00 | 100 | 1014.5 |
| 20260906131403 | 75 | 27 | 0.0 | 0.9 | 0.00 | 1.12 | 0.00 | 100 | 1014.6 |
| 20260906131203 | 75 | 27 | 0.0 | 0.9 | 0.00 | 1.12 | 0.00 | 100 | 1014.6 |
| 20260906131003 | 75 | 27 | 0.0 | 0.9 | 0.00 | 1.12 | 0.00 | 100 | 1014.6 |
| 20260906130803 | 75 | 27 | 0.0 | 0.9 | 0.00 | 1.12 | 0.00 | 100 | 1014.6 |
| 20260906130603 | 75 | 27 | 0.0 | 0.9 | 0.00 | 1.12 | 0.00 | 100 | 1014.6 |
| 20260906130403 | 75 | 27 | 0.0 | 0.9 | 0.00 | 1.12 | 0.00 | 100 | 1014.6 |
| 20260906130203 | 74 | 27 | 0.0 | 0.9 | 0.00 | 1.12 | 0.00 | 100 | 1014.6 |
| 20260906130003 | 74 | 27 | 0.0 | 0.9 | 0.00 | 1.12 | 0.00 | 100 | 1014.5 |
| 20260906125824 | 74 | 27 | 0.0 | 0.9 | 0.00 | 1.12 | 0.00 | 100 | 1014.5 |
| 20260906125603 | 74 | 27 | 0.0 | 0.9 | 0.00 | 1.12 | 0.00 | 100 | 1014.5 |
| 20260906125424 | 74 | 27 | 0.0 | 0.9 | 0.00 | 1.12 | 0.00 | 100 | 1014.5 |
| 20260906125203 | 74 | 27 | 0.0 | 0.9 | 0.00 | 1.12 | 0.00 | 100 | 1014.6 |
| 20260906125003 | 74 | 30 | 0.0 | 0.9 | 0.00 | 1.12 | 0.00 | 100 | 1014.6 |
| 20260906124824 | 74 | 41 | 0.0 | 0.9 | 0.00 | 1.12 | 0.00 | 100 | 1014.6 |
| 20260906124603 | 73 | 41 | 0.0 | 0.9 | 0.00 | 1.12 | 0.00 | 100 | 1014.6 |
| 20260906124403 | 73 | 41 | 0.0 | 0.9 | 0.00 | 1.12 | 0.00 | 100 | 1014.6 |
| 20260906124203 | 73 | 42 | 0.0 | 0.9 | 0.00 | 1.12 | 0.00 | 100 | 1014.6 |
| 20260906124003 | 73 | 58 | 0.0 | 0.9 | 0.00 | 1.12 | 0.00 | 100 | 1014.6 |
| 20260906123803 | 73 | 60 | 0.0 | 0.9 | 0.00 | 1.12 | 0.00 | 100 | 1014.5 |
| 20260906123603 | 73 | 60 | 0.0 | 0.9 | 0.00 | 1.12 | 0.00 | 100 | 1014.6 |
| 20260906123403 | 73 | 60 | 0.0 | 0.9 | 0.00 | 1.12 | 0.00 | 100 | 1014.5 |
| 20260906123203 | 73 | 64 | 0.0 | 0.9 | 0.00 | 1.12 | 0.00 | 100 | 1014.5 |
| 20260906123003 | 73 | 64 | 0.0 | 0.9 | 0.00 | 1.12 | 0.00 | 100 | 1014.4 |
| 20260906122803 | 72 | 80 | 0.0 | 0.9 | 0.00 | 1.12 | 0.00 | 100 | 1014.4 |
| 20260906122603 | 72 | 99 | 0.0 | 0.9 | 0.00 | 1.12 | 0.00 | 100 | 1014.3 |
| 20260906122403 | 72 | 99 | 0.0 | 0.9 | 0.00 | 1.12 | 0.00 | 100 | 1014.3 |
| 20260906122203 | 72 | 0 | 0.0 | 0.0 | 0.00 | 1.12 | 0.00 | 100 | 1014.2 |
| 20260906122003 | 72 | 0 | 0.0 | 0.0 | 0.00 | 1.12 | 0.00 | 100 | 1014.2 |
| 20260906121824 | 72 | 0 | 0.0 | 0.0 | 0.00 | 1.12 | 0.00 | 100 | 1014.2 |
| 20260906121624 | 72 | 0 | 0.0 | 0.0 | 0.00 | 1.12 | 0.00 | 100 | 1014.1 |
| 20260906121403 | 72 | 99 | 0.0 | 0.9 | 0.00 | 1.12 | 0.00 | 100 | 1014.1 |
| 20260906121203 | 72 | 99 | 0.0 | 0.9 | 0.00 | 1.12 | 0.00 | 100 | 1014.1 |
| 20260906121003 | 72 | 99 | 0.0 | 0.9 | 0.00 | 1.12 | 0.00 | 100 | 1014.0 |
| 20260906120824 | 72 | 99 | 0.0 | 0.9 | 0.00 | 1.12 | 0.00 | 100 | 1014.0 |
| 20260906120624 | 72 | 99 | 0.0 | 0.9 | 0.00 | 1.12 | 0.00 | 100 | 1014.0 |
| 20260906120424 | 72 | 0 | 0.0 | 0.0 | 0.00 | 1.12 | 0.00 | 100 | 1014.0 |
| 20260906120203 | 72 | 0 | 0.0 | 0.0 | 0.00 | 1.12 | 0.00 | 100 | 1014.0 |
| 20260906120003 | 72 | 0 | 0.0 | 0.0 | 0.00 | 1.12 | 0.00 | 100 | 1014.0 |
| 20260906115803 | 72 | 0 | 0.0 | 0.0 | 0.00 | 1.12 | 0.00 | 100 | 1013.9 |
| 20260906115603 | 72 | 0 | 0.0 | 0.0 | 0.00 | 1.12 | 0.00 | 100 | 1013.9 |
| 20260906115424 | 72 | 0 | 0.0 | 0.0 | 0.00 | 1.12 | 0.00 | 100 | 1014.0 |
| 20260906115203 | 72 | 0 | 0.0 | 0.0 | 0.00 | 1.12 | 0.00 | 100 | 1013.9 |
| 20260906115003 | 72 | 0 | 0.0 | 0.0 | 0.00 | 1.12 | 0.00 | 100 | 1013.9 |
| 20260906114803 | 72 | 0 | 0.0 | 0.0 | 0.00 | 1.12 | 0.00 | 100 | 1013.9 |
| 20260906114603 | 72 | 0 | 0.0 | 0.0 | 0.00 | 1.12 | 0.00 | 100 | 1013.9 |
| 20260906114403 | 72 | 0 | 0.0 | 0.0 | 0.00 | 1.12 | 0.00 | 100 | 1013.9 |
| 20260906114203 | 72 | 0 | 0.0 | 0.0 | 0.00 | 1.12 | 0.00 | 100 | 1013.8 |
| 20260906114003 | 72 | 0 | 0.0 | 0.0 | 0.00 | 1.12 | 0.00 | 100 | 1013.9 |
| 20260906113824 | 72 | 0 | 0.0 | 0.0 | 0.00 | 1.12 | 0.00 | 100 | 1013.8 |
| 20260906113603 | 71 | 0 | 0.0 | 0.0 | 0.00 | 1.12 | 0.00 | 100 | 1013.8 |
| 20260906113403 | 72 | 100 | 0.0 | 0.9 | 0.00 | 1.12 | 0.00 | 100 | 1013.7 |
| 20260906113203 | 71 | 100 | 0.0 | 0.9 | 0.00 | 1.12 | 0.00 | 100 | 1013.7 |
| 20260906113003 | 71 | 100 | 0.0 | 0.9 | 0.00 | 1.12 | 0.00 | 100 | 1013.7 |
| 20260906112803 | 71 | 100 | 0.0 | 0.9 | 0.00 | 1.12 | 0.00 | 100 | 1013.6 |
| 20260906112603 | 71 | 100 | 0.0 | 0.9 | 0.00 | 1.12 | 0.00 | 100 | 1013.6 |
| 20260906112403 | 71 | 0 | 0.0 | 0.0 | 0.00 | 1.12 | 0.00 | 100 | 1013.6 |
| 20260906112203 | 71 | 0 | 0.0 | 0.0 | 0.00 | 1.12 | 0.00 | 100 | 1013.6 |
| 20260906112003 | 71 | 0 | 0.0 | 0.0 | 0.00 | 1.12 | 0.00 | 100 | 1013.6 |
| 20260906111803 | 71 | 0 | 0.0 | 0.0 | 0.00 | 1.12 | 0.00 | 100 | 1013.5 |
| 20260906111603 | 71 | 100 | 0.0 | 0.9 | 0.00 | 1.12 | 0.00 | 100 | 1013.5 |
| 20260906111403 | 71 | 100 | 0.0 | 0.9 | 0.00 | 1.12 | 0.00 | 100 | 1013.5 |
| 20260906111203 | 71 | 100 | 0.0 | 0.9 | 0.00 | 1.12 | 0.00 | 100 | 1013.5 |
| 20260906111003 | 71 | 100 | 0.0 | 0.9 | 0.00 | 1.12 | 0.00 | 100 | 1013.5 |
| 20260906110803 | 71 | 100 | 0.0 | 0.9 | 0.00 | 1.12 | 0.00 | 100 | 1013.5 |
| 20260906110603 | 71 | 101 | 0.0 | 0.9 | 0.00 | 1.12 | 0.00 | 100 | 1013.5 |
| 20260906110403 | 71 | 0 | 0.0 | 0.0 | 0.00 | 1.12 | 0.00 | 100 | 1013.5 |
| 20260906110203 | 71 | 0 | 0.0 | 0.0 | 0.00 | 1.12 | 0.00 | 100 | 1013.5 |
| 20260906110003 | 71 | 0 | 0.0 | 0.0 | 0.00 | 1.12 | 0.00 | 100 | 1013.5 |
| 20260906105803 | 71 | 0 | 0.0 | 0.0 | 0.00 | 1.12 | 0.00 | 100 | 1013.4 |
| 20260906105603 | 71 | 0 | 0.0 | 0.0 | 0.00 | 1.12 | 0.00 | 100 | 1013.4 |
| 20260906105403 | 71 | 0 | 0.0 | 0.0 | 0.00 | 1.12 | 0.00 | 100 | 1013.4 |
| 20260906105203 | 71 | 0 | 0.0 | 0.0 | 0.00 | 1.12 | 0.00 | 100 | 1013.4 |
| 20260906105003 | 71 | 0 | 0.0 | 0.0 | 0.00 | 1.12 | 0.00 | 100 | 1013.4 |
| 20260906104824 | 71 | 0 | 0.0 | 0.0 | 0.00 | 1.12 | 0.00 | 100 | 1013.4 |
| 20260906104603 | 71 | 100 | 0.0 | 0.9 | 0.00 | 1.12 | 0.00 | 100 | 1013.4 |
| 20260906104403 | 71 | 100 | 0.0 | 0.9 | 0.00 | 1.12 | 0.00 | 100 | 1013.4 |
| 20260906104203 | 71 | 100 | 0.0 | 0.9 | 0.00 | 1.12 | 0.00 | 100 | 1013.4 |
| 20260906104003 | 71 | 100 | 0.0 | 0.9 | 0.00 | 1.12 | 0.00 | 100 | 1013.4 |
| 20260906103803 | 71 | 100 | 0.0 | 0.9 | 0.00 | 1.12 | 0.00 | 100 | 1013.3 |
| 20260906103624 | 71 | 99 | 0.0 | 0.9 | 0.00 | 1.12 | 0.00 | 100 | 1013.4 |
| 20260906103403 | 71 | 0 | 0.0 | 0.0 | 0.00 | 1.12 | 0.00 | 100 | 1013.3 |
| 20260906103203 | 71 | 0 | 0.0 | 0.0 | 0.00 | 1.12 | 0.00 | 100 | 1013.4 |
| 20260906103003 | 71 | 0 | 0.0 | 0.0 | 0.00 | 1.12 | 0.00 | 100 | 1013.4 |
| 20260906102803 | 71 | 0 | 0.0 | 0.0 | 0.00 | 1.12 | 0.00 | 100 | 1013.5 |
| 20260906102603 | 71 | 0 | 0.0 | 0.0 | 0.00 | 1.12 | 0.00 | 100 | 1013.5 |
| 20260906102403 | 71 | 0 | 0.0 | 0.0 | 0.00 | 1.12 | 0.00 | 100 | 1013.5 |
| 20260906102203 | 71 | 0 | 0.0 | 0.0 | 0.00 | 1.12 | 0.00 | 100 | 1013.3 |
| 20260906102003 | 71 | 0 | 0.0 | 0.0 | 0.00 | 1.12 | 0.00 | 100 | 1013.3 |
| 20260906101824 | 71 | 0 | 0.0 | 0.0 | 0.00 | 1.12 | 0.00 | 100 | 1013.2 |
| 20260906101603 | 71 | 103 | 0.0 | 0.9 | 0.00 | 1.12 | 0.00 | 100 | 1013.2 |
| 20260906101403 | 71 | 103 | 0.0 | 0.9 | 0.00 | 1.12 | 0.00 | 100 | 1013.2 |
| 20260906101203 | 71 | 103 | 0.0 | 0.9 | 0.00 | 1.12 | 0.00 | 100 | 1013.1 |
| 20260906101003 | 71 | 103 | 0.0 | 0.9 | 0.00 | 1.12 | 0.00 | 100 | 1013.1 |
| 20260906100824 | 71 | 103 | 0.0 | 0.9 | 0.00 | 1.12 | 0.00 | 100 | 1013.1 |
| 20260906100603 | 71 | 0 | 0.0 | 0.0 | 0.00 | 1.12 | 0.00 | 100 | 1013.0 |
| 20260906100403 | 71 | 0 | 0.0 | 0.0 | 0.00 | 1.12 | 0.00 | 100 | 1013.0 |
| 20260906100203 | 71 | 0 | 0.0 | 0.0 | 0.00 | 1.12 | 0.00 | 100 | 1013.0 |
| 20260906100003 | 72 | 0 | 0.0 | 0.0 | 0.00 | 1.12 | 0.00 | 100 | 1013.0 |
| 20260906095803 | 72 | 0 | 0.0 | 0.0 | 0.00 | 1.12 | 0.00 | 100 | 1013.0 |
| 20260906095603 | 72 | 0 | 0.0 | 0.0 | 0.00 | 1.12 | 0.00 | 100 | 1013.0 |
| 20260906095403 | 72 | 0 | 0.0 | 0.0 | 0.00 | 1.12 | 0.00 | 100 | 1012.9 |
| 20260906095203 | 72 | 0 | 0.0 | 0.0 | 0.00 | 1.12 | 0.00 | 100 | 1012.9 |
| 20260906095003 | 72 | 0 | 0.0 | 0.0 | 0.00 | 1.12 | 0.00 | 100 | 1012.9 |
| 20260906094803 | 72 | 0 | 0.0 | 0.0 | 0.00 | 1.12 | 0.00 | 100 | 1012.8 |
| 20260906094604 | 72 | 0 | 0.0 | 0.0 | 0.00 | 1.12 | 0.00 | 100 | 1012.9 |
| 20260906094403 | 72 | 0 | 0.0 | 0.0 | 0.00 | 1.12 | 0.00 | 100 | 1012.9 |
| 20260906094224 | 72 | 0 | 0.0 | 0.0 | 0.00 | 1.12 | 0.00 | 100 | 1012.9 |
| 20260906094003 | 72 | 0 | 0.0 | 0.0 | 0.00 | 1.12 | 0.00 | 100 | 1012.9 |
| 20260906093803 | 72 | 0 | 0.0 | 0.0 | 0.00 | 1.12 | 0.00 | 100 | 1012.9 |
| 20260906093603 | 72 | 0 | 0.0 | 0.0 | 0.00 | 1.12 | 0.00 | 100 | 1012.8 |
| 20260906093424 | 72 | 0 | 0.0 | 0.0 | 0.00 | 1.12 | 0.00 | 100 | 1012.9 |
| 20260906093203 | 72 | 0 | 0.0 | 0.0 | 0.00 | 1.12 | 0.00 | 100 | 1012.8 |
| 20260906093003 | 72 | 0 | 0.0 | 0.0 | 0.00 | 1.12 | 0.00 | 100 | 1012.8 |
| 20260906092803 | 72 | 0 | 0.0 | 0.0 | 0.00 | 1.12 | 0.00 | 100 | 1012.8 |
| 20260906092624 | 72 | 0 | 0.0 | 0.0 | 0.00 | 1.12 | 0.00 | 100 | 1012.8 |
| 20260906092403 | 72 | 0 | 0.0 | 0.0 | 0.00 | 1.12 | 0.00 | 100 | 1012.8 |
| 20260906092224 | 72 | 0 | 0.0 | 0.0 | 0.00 | 1.12 | 0.00 | 100 | 1012.8 |
| 20260906092024 | 72 | 0 | 0.0 | 0.0 | 0.00 | 1.12 | 0.00 | 100 | 1012.8 |
| 20260906091803 | 71 | 0 | 0.0 | 0.0 | 0.00 | 1.12 | 0.00 | 100 | 1012.8 |
| 20260906091603 | 71 | 0 | 0.0 | 0.0 | 0.00 | 1.12 | 0.00 | 100 | 1012.7 |
| 20260906091403 | 71 | 0 | 0.0 | 0.0 | 0.00 | 1.12 | 0.00 | 100 | 1012.7 |
| 20260906091203 | 71 | 0 | 0.0 | 0.0 | 0.00 | 1.12 | 0.00 | 100 | 1012.7 |
| 20260906091003 | 71 | 0 | 0.0 | 0.0 | 0.00 | 1.12 | 0.00 | 100 | 1012.7 |
| 20260906090824 | 71 | 0 | 0.0 | 0.0 | 0.00 | 1.12 | 0.00 | 100 | 1012.7 |
| 20260906090603 | 71 | 0 | 0.0 | 0.0 | 0.00 | 1.12 | 0.00 | 100 | 1012.7 |
| 20260906090403 | 71 | 0 | 0.0 | 0.0 | 0.00 | 1.12 | 0.00 | 100 | 1012.6 |
| 20260906090203 | 71 | 0 | 0.0 | 0.0 | 0.00 | 1.12 | 0.00 | 100 | 1012.6 |
| 20260906090003 | 72 | 0 | 0.0 | 0.0 | 0.00 | 1.12 | 0.00 | 100 | 1012.6 |
| 20260906085803 | 72 | 0 | 0.0 | 0.0 | 0.00 | 1.12 | 0.00 | 100 | 1012.6 |
| 20260906085603 | 72 | 0 | 0.0 | 0.0 | 0.00 | 1.12 | 0.00 | 100 | 1012.6 |
| 20260906085403 | 72 | 0 | 0.0 | 0.0 | 0.00 | 1.12 | 0.00 | 100 | 1012.6 |
| 20260906085203 | 72 | 0 | 0.0 | 0.0 | 0.00 | 1.12 | 0.00 | 100 | 1012.5 |
| 20260906085003 | 72 | 0 | 0.0 | 0.0 | 0.00 | 1.12 | 0.00 | 100 | 1012.5 |
| 20260906084803 | 72 | 0 | 0.0 | 0.0 | 0.00 | 1.12 | 0.00 | 100 | 1012.4 |
| 20260906084624 | 72 | 0 | 0.0 | 0.0 | 0.00 | 1.12 | 0.00 | 100 | 1012.4 |
| 20260906084424 | 72 | 0 | 0.0 | 0.0 | 0.00 | 1.12 | 0.00 | 100 | 1012.4 |
| 20260906084203 | 72 | 0 | 0.0 | 0.0 | 0.00 | 1.12 | 0.00 | 100 | 1012.4 |
| 20260906084024 | 72 | 0 | 0.0 | 0.0 | 0.00 | 1.12 | 0.00 | 100 | 1012.4 |
| 20260906083803 | 72 | 0 | 0.0 | 0.0 | 0.00 | 1.12 | 0.00 | 100 | 1012.4 |
| 20260906083624 | 72 | 0 | 0.0 | 0.0 | 0.00 | 1.12 | 0.00 | 100 | 1012.4 |
| 20260906083403 | 72 | 0 | 0.0 | 0.0 | 0.00 | 1.12 | 0.00 | 100 | 1012.3 |
| 20260906083203 | 72 | 0 | 0.0 | 0.0 | 0.00 | 1.12 | 0.00 | 100 | 1012.3 |
| 20260906083024 | 72 | 0 | 0.0 | 0.0 | 0.00 | 1.12 | 0.00 | 100 | 1012.3 |
| 20260906082824 | 72 | 0 | 0.0 | 0.0 | 0.00 | 1.12 | 0.00 | 100 | 1012.3 |
| 20260906082603 | 72 | 0 | 0.0 | 0.0 | 0.00 | 1.12 | 0.00 | 100 | 1012.3 |
| 20260906082403 | 72 | 0 | 0.0 | 0.0 | 0.00 | 1.12 | 0.00 | 100 | 1012.3 |
| 20260906082203 | 72 | 0 | 0.0 | 0.0 | 0.00 | 1.12 | 0.00 | 100 | 1012.3 |
| 20260906082003 | 72 | 0 | 0.0 | 0.0 | 0.00 | 1.12 | 0.00 | 100 | 1012.3 |
| 20260906081803 | 72 | 0 | 0.0 | 0.0 | 0.00 | 1.12 | 0.00 | 100 | 1012.4 |
| 20260906081603 | 72 | 0 | 0.0 | 0.0 | 0.00 | 1.12 | 0.00 | 100 | 1012.3 |
| 20260906081403 | 72 | 0 | 0.0 | 0.0 | 0.00 | 1.12 | 0.00 | 100 | 1012.3 |
| 20260906081203 | 72 | 0 | 0.0 | 0.0 | 0.00 | 1.12 | 0.00 | 100 | 1012.3 |
| 20260906081003 | 72 | 0 | 0.0 | 0.0 | 0.00 | 1.12 | 0.00 | 100 | 1012.3 |
| 20260906080803 | 72 | 0 | 0.0 | 0.0 | 0.00 | 1.12 | 0.00 | 100 | 1012.3 |
| 20260906080603 | 72 | 0 | 0.0 | 0.0 | 0.00 | 1.12 | 0.00 | 100 | 1012.3 |
| 20260906080403 | 72 | 0 | 0.0 | 0.0 | 0.00 | 1.12 | 0.00 | 100 | 1012.3 |
| 20260906080203 | 72 | 0 | 0.0 | 0.0 | 0.00 | 1.12 | 0.00 | 100 | 1012.4 |
| 20260906080003 | 72 | 0 | 0.0 | 0.0 | 0.00 | 1.12 | 0.00 | 100 | 1012.4 |
| 20260906075803 | 72 | 0 | 0.0 | 0.0 | 0.00 | 1.12 | 0.00 | 100 | 1012.3 |
| 20260906075603 | 72 | 0 | 0.0 | 0.0 | 0.00 | 1.12 | 0.00 | 100 | 1012.3 |
| 20260906075403 | 72 | 0 | 0.0 | 0.0 | 0.00 | 1.12 | 0.00 | 100 | 1012.2 |
| 20260906075203 | 72 | 0 | 0.0 | 0.0 | 0.00 | 1.12 | 0.00 | 100 | 1012.2 |
| 20260906075003 | 72 | 0 | 0.0 | 0.0 | 0.00 | 1.12 | 0.00 | 100 | 1012.2 |
| 20260906074803 | 72 | 0 | 0.0 | 0.0 | 0.00 | 1.12 | 0.00 | 100 | 1012.1 |
| 20260906074603 | 72 | 0 | 0.0 | 0.0 | 0.00 | 1.12 | 0.00 | 100 | 1012.2 |
| 20260906074424 | 72 | 0 | 0.0 | 0.0 | 0.00 | 1.12 | 0.00 | 100 | 1012.3 |
| 20260906074203 | 72 | 0 | 0.0 | 0.0 | 0.00 | 1.12 | 0.00 | 100 | 1012.2 |
| 20260906074003 | 72 | 0 | 0.0 | 0.0 | 0.00 | 1.12 | 0.00 | 100 | 1012.3 |
| 20260906073803 | 72 | 0 | 0.0 | 0.0 | 0.00 | 1.12 | 0.00 | 100 | 1012.4 |
| 20260906073603 | 72 | 0 | 0.0 | 0.0 | 0.00 | 1.12 | 0.00 | 100 | 1012.4 |
| 20260906073403 | 72 | 0 | 0.0 | 0.0 | 0.00 | 1.12 | 0.00 | 100 | 1012.5 |
| 20260906073203 | 72 | 0 | 0.0 | 0.0 | 0.00 | 1.12 | 0.00 | 100 | 1012.5 |
| 20260906073003 | 72 | 0 | 0.0 | 0.0 | 0.00 | 1.12 | 0.00 | 100 | 1012.5 |
| 20260906072803 | 72 | 0 | 0.0 | 0.0 | 0.00 | 1.12 | 0.00 | 100 | 1012.5 |
| 20260906072624 | 72 | 0 | 0.0 | 0.0 | 0.00 | 1.12 | 0.00 | 100 | 1012.5 |
| 20260906072403 | 72 | 0 | 0.0 | 0.0 | 0.00 | 1.12 | 0.00 | 100 | 1012.5 |
| 20260906072203 | 72 | 0 | 0.0 | 0.0 | 0.00 | 1.12 | 0.00 | 100 | 1012.4 |
| 20260906072003 | 72 | 0 | 0.0 | 0.0 | 0.00 | 1.12 | 0.00 | 100 | 1012.5 |
| 20260906071803 | 72 | 0 | 0.0 | 0.0 | 0.00 | 1.12 | 0.00 | 100 | 1012.5 |
| 20260906071603 | 72 | 0 | 0.0 | 0.0 | 0.00 | 1.12 | 0.00 | 100 | 1012.4 |
| 20260906071403 | 72 | 0 | 0.0 | 0.0 | 0.00 | 1.12 | 0.00 | 100 | 1012.5 |
| 20260906071224 | 72 | 0 | 0.0 | 0.0 | 0.00 | 1.12 | 0.00 | 100 | 1012.6 |
| 20260906071003 | 72 | 103 | 0.0 | 0.9 | 0.00 | 1.12 | 0.00 | 100 | 1012.5 |
| 20260906070803 | 72 | 103 | 0.0 | 0.9 | 0.00 | 1.12 | 0.00 | 100 | 1012.5 |
| 20260906070603 | 72 | 103 | 0.0 | 0.9 | 0.00 | 1.12 | 0.00 | 100 | 1012.5 |
| 20260906070403 | 72 | 103 | 0.0 | 0.9 | 0.00 | 1.12 | 0.00 | 100 | 1012.5 |
| 20260906070203 | 72 | 103 | 0.0 | 0.9 | 0.00 | 1.12 | 0.00 | 100 | 1012.4 |
| 20260906070003 | 73 | 0 | 0.0 | 0.0 | 0.00 | 1.12 | 0.00 | 100 | 1012.4 |
| 20260906065803 | 73 | 0 | 0.0 | 0.0 | 0.00 | 1.12 | 0.00 | 100 | 1012.3 |
| 20260906065603 | 73 | 0 | 0.0 | 0.0 | 0.00 | 1.12 | 0.00 | 100 | 1012.3 |
| 20260906065403 | 73 | 0 | 0.0 | 0.0 | 0.00 | 1.12 | 0.00 | 100 | 1012.2 |
| 20260906065203 | 73 | 0 | 0.0 | 0.0 | 0.00 | 1.12 | 0.00 | 100 | 1012.2 |
| 20260906065003 | 73 | 0 | 0.0 | 0.0 | 0.00 | 1.12 | 0.00 | 100 | 1012.2 |
| 20260906064803 | 73 | 0 | 0.0 | 0.0 | 0.00 | 1.12 | 0.00 | 100 | 1012.1 |
| 20260906064603 | 73 | 0 | 0.0 | 0.0 | 0.00 | 1.12 | 0.00 | 100 | 1012.1 |
| 20260906064403 | 73 | 0 | 0.0 | 0.0 | 0.00 | 1.12 | 0.00 | 100 | 1012.1 |
| 20260906064203 | 73 | 0 | 0.0 | 0.0 | 0.00 | 1.12 | 0.00 | 100 | 1012.1 |
| 20260906064003 | 73 | 0 | 0.0 | 0.0 | 0.00 | 1.12 | 0.00 | 100 | 1012.1 |
| 20260906063803 | 73 | 0 | 0.0 | 0.0 | 0.00 | 1.12 | 0.00 | 100 | 1012.0 |
| 20260906063603 | 72 | 0 | 0.0 | 0.0 | 0.00 | 1.12 | 0.00 | 100 | 1012.0 |
| 20260906063424 | 72 | 0 | 0.0 | 0.0 | 0.00 | 1.12 | 0.00 | 100 | 1012.0 |
| 20260906063203 | 73 | 0 | 0.0 | 0.0 | 0.00 | 1.12 | 0.00 | 100 | 1012.0 |
| 20260906063003 | 72 | 0 | 0.0 | 0.0 | 0.00 | 1.12 | 0.00 | 100 | 1012.0 |
| 20260906062803 | 73 | 0 | 0.0 | 0.0 | 0.00 | 1.12 | 0.00 | 100 | 1012.0 |
| 20260906062603 | 72 | 0 | 0.0 | 0.0 | 0.00 | 1.12 | 0.00 | 100 | 1012.1 |
| 20260906062403 | 72 | 0 | 0.0 | 0.0 | 0.00 | 1.12 | 0.00 | 100 | 1012.1 |
| 20260906062203 | 72 | 0 | 0.0 | 0.0 | 0.00 | 1.12 | 0.00 | 100 | 1012.1 |
| 20260906062003 | 73 | 0 | 0.0 | 0.0 | 0.00 | 1.12 | 0.00 | 100 | 1012.1 |
| 20260906061824 | 73 | 0 | 0.0 | 0.0 | 0.00 | 1.12 | 0.00 | 100 | 1012.2 |
| 20260906061603 | 73 | 102 | 0.0 | 0.9 | 0.00 | 1.12 | 0.00 | 100 | 1012.2 |
| 20260906061424 | 73 | 102 | 0.0 | 0.9 | 0.00 | 1.12 | 0.00 | 100 | 1012.2 |
| 20260906061203 | 72 | 102 | 0.0 | 0.9 | 0.00 | 1.12 | 0.00 | 100 | 1012.2 |
| 20260906061003 | 72 | 102 | 0.0 | 0.9 | 0.00 | 1.12 | 0.00 | 100 | 1012.3 |
| 20260906060803 | 72 | 102 | 0.0 | 0.9 | 0.00 | 1.12 | 0.00 | 100 | 1012.3 |
| 20260906060603 | 72 | 0 | 0.0 | 0.0 | 0.00 | 1.12 | 0.00 | 100 | 1012.3 |
| 20260906060424 | 72 | 0 | 0.0 | 0.0 | 0.00 | 1.12 | 0.00 | 100 | 1012.3 |
| 20260906060203 | 72 | 0 | 0.0 | 0.0 | 0.00 | 1.12 | 0.00 | 100 | 1012.3 |
| 20260906060003 | 72 | 0 | 0.0 | 0.0 | 0.00 | 1.12 | 0.00 | 100 | 1012.3 |
| 20260906055803 | 72 | 0 | 0.0 | 0.0 | 0.00 | 1.12 | 0.00 | 100 | 1012.2 |
| 20260906055603 | 72 | 0 | 0.0 | 0.0 | 0.00 | 1.12 | 0.00 | 100 | 1012.3 |
| 20260906055403 | 72 | 0 | 0.0 | 0.0 | 0.00 | 1.12 | 0.00 | 100 | 1012.3 |
| 20260906055203 | 72 | 0 | 0.0 | 0.0 | 0.00 | 1.12 | 0.00 | 100 | 1012.4 |
| 20260906055003 | 72 | 0 | 0.0 | 0.0 | 0.00 | 1.12 | 0.00 | 100 | 1012.4 |
| 20260906054803 | 72 | 0 | 0.0 | 0.0 | 0.00 | 1.12 | 0.00 | 100 | 1012.4 |
| 20260906054603 | 72 | 0 | 0.0 | 0.0 | 0.00 | 1.12 | 0.00 | 100 | 1012.5 |
| 20260906054403 | 72 | 0 | 0.0 | 0.0 | 0.00 | 1.12 | 0.00 | 100 | 1012.5 |
| 20260906054224 | 72 | 0 | 0.0 | 0.0 | 0.00 | 1.12 | 0.00 | 100 | 1012.5 |
| 20260906054003 | 72 | 0 | 0.0 | 0.0 | 0.00 | 1.12 | 0.00 | 100 | 1012.5 |
| 20260906053803 | 72 | 0 | 0.0 | 0.0 | 0.00 | 1.12 | 0.00 | 100 | 1012.5 |
| 20260906053624 | 72 | 0 | 0.0 | 0.0 | 0.00 | 1.12 | 0.00 | 100 | 1012.5 |
| 20260906053424 | 72 | 0 | 0.0 | 0.0 | 0.00 | 1.12 | 0.00 | 100 | 1012.5 |
| 20260906053203 | 72 | 0 | 0.0 | 0.0 | 0.00 | 1.12 | 0.00 | 100 | 1012.5 |
| 20260906053003 | 72 | 0 | 0.0 | 0.0 | 0.00 | 1.12 | 0.00 | 100 | 1012.6 |
| 20260906052803 | 72 | 0 | 0.0 | 0.0 | 0.00 | 1.12 | 0.00 | 100 | 1012.6 |
| 20260906052624 | 72 | 0 | 0.0 | 0.0 | 0.00 | 1.12 | 0.00 | 100 | 1012.6 |
| 20260906052403 | 72 | 0 | 0.0 | 0.0 | 0.00 | 1.12 | 0.00 | 100 | 1012.7 |
| 20260906052203 | 72 | 0 | 0.0 | 0.0 | 0.00 | 1.12 | 0.00 | 100 | 1012.8 |
| 20260906052003 | 72 | 0 | 0.0 | 0.0 | 0.00 | 1.12 | 0.00 | 99 | 1012.8 |
| 20260906051803 | 72 | 0 | 0.0 | 0.0 | 0.00 | 1.12 | 0.00 | 99 | 1012.8 |
| 20260906051603 | 72 | 113 | 0.0 | 0.9 | 0.00 | 1.12 | 0.00 | 99 | 1012.8 |
| 20260906051403 | 72 | 113 | 0.0 | 0.9 | 0.00 | 1.12 | 0.00 | 100 | 1012.9 |
| 20260906051203 | 72 | 113 | 0.0 | 0.9 | 0.00 | 1.12 | 0.00 | 100 | 1012.9 |
| 20260906051003 | 73 | 113 | 0.0 | 0.9 | 0.00 | 1.12 | 0.00 | 100 | 1012.9 |
| 20260906050824 | 73 | 113 | 0.0 | 0.9 | 0.00 | 1.12 | 0.00 | 99 | 1012.9 |
| 20260906050603 | 72 | 0 | 0.0 | 0.0 | 0.00 | 1.12 | 0.00 | 99 | 1012.9 |
| 20260906050403 | 73 | 0 | 0.0 | 0.0 | 0.00 | 1.12 | 0.00 | 99 | 1012.9 |
| 20260906050203 | 73 | 0 | 0.0 | 0.0 | 0.00 | 1.12 | 0.00 | 99 | 1013.0 |
| 20260906050003 | 73 | 113 | 0.0 | 0.9 | 0.00 | 1.12 | 0.00 | 99 | 1013.0 |
| 20260906045803 | 73 | 113 | 0.0 | 0.9 | 0.00 | 1.12 | 1.12 | 99 | 1012.9 |
| 20260906045603 | 73 | 112 | 0.0 | 0.9 | 0.00 | 1.12 | 1.12 | 99 | 1012.9 |
| 20260906045403 | 73 | 112 | 0.0 | 0.9 | 0.00 | 1.12 | 1.12 | 99 | 1013.0 |
| 20260906045203 | 73 | 111 | 0.0 | 0.9 | 0.00 | 1.12 | 1.12 | 99 | 1013.0 |
| 20260906045003 | 73 | 108 | 0.0 | 0.9 | 0.00 | 1.12 | 1.12 | 99 | 1013.1 |
| 20260906044803 | 73 | 107 | 0.0 | 0.9 | 0.00 | 1.12 | 1.12 | 99 | 1013.0 |
| 20260906044603 | 73 | 105 | 0.0 | 0.9 | 0.00 | 1.12 | 1.12 | 99 | 1013.0 |
| 20260906044403 | 73 | 105 | 0.0 | 0.9 | 0.00 | 1.12 | 1.12 | 99 | 1013.0 |
| 20260906044203 | 73 | 103 | 0.0 | 0.9 | 0.00 | 1.12 | 1.12 | 99 | 1013.0 |
| 20260906044024 | 73 | 99 | 0.0 | 0.9 | 0.00 | 1.12 | 1.12 | 99 | 1013.0 |
| 20260906043826 | 73 | 99 | 0.0 | 0.9 | 0.00 | 1.12 | 1.12 | 99 | 1012.9 |
| 20260906043603 | 73 | 99 | 0.0 | 0.9 | 0.00 | 1.12 | 1.12 | 99 | 1012.9 |
| 20260906043424 | 73 | 99 | 0.0 | 0.9 | 0.00 | 1.12 | 1.12 | 99 | 1012.8 |
| 20260906043203 | 73 | 99 | 0.0 | 0.9 | 0.00 | 1.12 | 1.12 | 99 | 1012.9 |
| 20260906043024 | 73 | 99 | 0.0 | 0.9 | 0.00 | 1.12 | 1.12 | 99 | 1012.9 |
| 20260906042803 | 73 | 0 | 0.0 | 0.0 | 0.00 | 1.12 | 1.12 | 99 | 1012.9 |
| 20260906042603 | 73 | 0 | 0.0 | 0.0 | 0.00 | 1.12 | 1.12 | 99 | 1012.8 |
| 20260906042424 | 73 | 0 | 0.0 | 0.0 | 0.00 | 1.12 | 1.12 | 99 | 1012.8 |
| 20260906042224 | 73 | 0 | 0.0 | 0.0 | 0.00 | 1.12 | 1.12 | 99 | 1012.9 |
| 20260906042003 | 73 | 0 | 0.0 | 0.0 | 0.00 | 1.12 | 1.12 | 99 | 1013.0 |
| 20260906041803 | 73 | 0 | 0.0 | 0.0 | 0.00 | 1.12 | 1.12 | 98 | 1013.1 |
| 20260906041624 | 73 | 0 | 0.0 | 0.0 | 0.00 | 1.12 | 1.12 | 98 | 1013.1 |
| 20260906041403 | 73 | 0 | 0.9 | 0.0 | 0.07 | 1.12 | 1.12 | 98 | 1013.2 |
| 20260906041203 | 74 | 97 | 0.9 | 1.7 | 0.17 | 1.12 | 1.12 | 98 | 1013.2 |
| 20260906041003 | 74 | 98 | 0.9 | 1.7 | 0.26 | 1.12 | 1.12 | 98 | 1013.2 |
| 20260906040803 | 74 | 99 | 0.9 | 2.6 | 0.30 | 1.12 | 1.12 | 98 | 1013.1 |
| 20260906040603 | 74 | 101 | 0.9 | 2.6 | 0.30 | 1.12 | 1.12 | 97 | 1013.1 |
| 20260906040403 | 73 | 101 | 0.9 | 2.6 | 0.30 | 1.12 | 1.12 | 97 | 1013.1 |
| 20260906040203 | 73 | 101 | 0.9 | 2.6 | 0.30 | 1.12 | 1.12 | 97 | 1013.1 |
| 20260906040003 | 73 | 102 | 0.0 | 2.6 | 0.30 | 1.12 | 1.12 | 97 | 1013.1 |
| 20260906035803 | 73 | 103 | 0.0 | 2.6 | 0.30 | 1.12 | 1.12 | 97 | 1013.1 |
| 20260906035624 | 73 | 101 | 0.0 | 2.6 | 0.30 | 1.12 | 1.12 | 97 | 1013.1 |
| 20260906035403 | 73 | 100 | 0.0 | 1.7 | 0.30 | 1.12 | 1.12 | 98 | 1013.2 |
| 20260906035203 | 73 | 101 | 0.0 | 0.9 | 0.30 | 1.12 | 1.12 | 98 | 1013.2 |
| 20260906035003 | 73 | 103 | 0.9 | 1.7 | 0.30 | 1.12 | 1.12 | 97 | 1013.2 |
| 20260906034824 | 73 | 102 | 0.9 | 1.7 | 0.30 | 1.12 | 1.12 | 98 | 1013.1 |
| 20260906034603 | 73 | 89 | 0.9 | 1.7 | 0.30 | 1.12 | 1.12 | 97 | 1013.1 |
| 20260906034403 | 73 | 94 | 0.9 | 1.7 | 0.30 | 1.12 | 1.12 | 97 | 1013.0 |
| 20260906034203 | 73 | 101 | 1.7 | 1.7 | 0.30 | 1.12 | 1.12 | 97 | 1012.9 |
| 20260906034003 | 73 | 107 | 1.7 | 2.6 | 0.30 | 1.12 | 1.12 | 96 | 1012.8 |
| 20260906033803 | 73 | 110 | 1.7 | 2.6 | 0.30 | 1.12 | 1.12 | 96 | 1012.9 |
| 20260906033603 | 73 | 112 | 1.7 | 2.6 | 0.30 | 1.12 | 1.12 | 96 | 1012.9 |
| 20260906033403 | 73 | 113 | 2.6 | 4.3 | 0.30 | 1.12 | 1.12 | 96 | 1012.8 |
| 20260906033203 | 73 | 111 | 2.6 | 4.3 | 0.30 | 1.12 | 1.12 | 95 | 1012.8 |
| 20260906033024 | 73 | 110 | 3.5 | 4.3 | 0.30 | 1.12 | 1.12 | 95 | 1012.8 |
| 20260906032803 | 73 | 105 | 4.3 | 6.1 | 0.30 | 1.12 | 1.12 | 95 | 1012.8 |
| 20260906032603 | 73 | 102 | 4.3 | 9.6 | 0.30 | 1.12 | 1.12 | 95 | 1012.7 |
| 20260906032403 | 73 | 100 | 5.2 | 9.6 | 0.30 | 1.12 | 1.12 | 95 | 1012.8 |
| 20260906032224 | 74 | 95 | 5.2 | 9.6 | 0.30 | 1.12 | 1.12 | 96 | 1012.9 |
| 20260906032004 | 74 | 77 | 5.2 | 13.0 | 0.30 | 1.12 | 1.12 | 95 | 1013.0 |
| 20260906031803 | 74 | 72 | 4.3 | 13.0 | 0.30 | 1.12 | 1.12 | 95 | 1013.1 |
| 20260906031603 | 74 | 45 | 4.3 | 13.0 | 0.30 | 1.12 | 1.12 | 94 | 1013.1 |
| 20260906031403 | 75 | 27 | 3.5 | 13.0 | 0.23 | 1.05 | 1.05 | 94 | 1013.7 |
| 20260906031204 | 75 | 18 | 3.5 | 13.0 | 0.13 | 0.95 | 0.95 | 93 | 1013.6 |
| 20260906031024 | 75 | 30 | 3.5 | 11.3 | 0.04 | 0.86 | 0.86 | 93 | 1013.3 |
| 20260906030803 | 75 | 25 | 2.6 | 11.3 | 0.00 | 0.82 | 0.84 | 91 | 1013.6 |
| 20260906030603 | 74 | 39 | 2.6 | 8.7 | 0.00 | 0.82 | 0.82 | 93 | 1013.8 |
| 20260906030403 | 74 | 34 | 1.7 | 7.0 | 0.00 | 0.82 | 0.82 | 94 | 1014.2 |
| 20260906030203 | 74 | 32 | 1.7 | 7.0 | 0.00 | 0.82 | 0.82 | 94 | 1014.2 |
| 20260906030003 | 74 | 27 | 1.7 | 7.0 | 0.00 | 0.82 | 0.82 | 95 | 1014.3 |
| 20260906025803 | 74 | 25 | 1.7 | 7.0 | 0.00 | 0.82 | 0.82 | 95 | 1014.6 |
| 20260906025603 | 74 | 23 | 1.7 | 7.0 | 0.00 | 0.82 | 0.82 | 95 | 1014.4 |
| 20260906025403 | 74 | 30 | 1.7 | 4.3 | 0.00 | 0.82 | 0.82 | 95 | 1014.5 |
| 20260906025203 | 74 | 80 | 2.6 | 5.2 | 0.00 | 0.82 | 0.82 | 95 | 1013.6 |
| 20260906025003 | 74 | 96 | 2.6 | 6.1 | 0.00 | 0.82 | 0.82 | 95 | 1013.1 |
| 20260906024803 | 74 | 98 | 2.6 | 6.1 | 0.00 | 0.82 | 0.82 | 95 | 1012.8 |
| 20260906024603 | 74 | 98 | 2.6 | 6.1 | 0.00 | 0.82 | 0.82 | 95 | 1012.8 |
| 20260906024403 | 74 | 96 | 2.6 | 6.1 | 0.00 | 0.82 | 0.82 | 93 | 1013.0 |
| 20260906024203 | 74 | 96 | 2.6 | 6.1 | 0.00 | 0.82 | 0.82 | 93 | 1013.2 |
| 20260906024003 | 74 | 96 | 2.6 | 6.1 | 0.00 | 0.82 | 0.82 | 94 | 1013.3 |
| 20260906023804 | 74 | 93 | 2.6 | 6.1 | 0.00 | 0.82 | 0.82 | 95 | 1013.3 |
| 20260906023603 | 74 | 34 | 2.6 | 2.6 | 0.00 | 0.82 | 0.82 | 95 | 1013.1 |
| 20260906011004 | 86 | 286 | 0.9 | 19.1 | 0.01 | 0.01 | 0.01 | 74 | 1011.8 |
| 20260906010804 | 87 | 298 | 0.0 | 7.8 | 0.00 | 0.00 | 0.00 | 71 | 1011.2 |
| 20260906010625 | 88 | 295 | 0.0 | 7.0 | 0.00 | 0.00 | 0.00 | 70 | 1011.3 |
| 20260906010404 | 88 | 317 | 0.0 | 2.6 | 0.00 | 0.00 | 0.00 | 68 | 1011.2 |
| 20260906010204 | 88 | 0 | 0.0 | 0.0 | 0.00 | 0.00 | 0.00 | 68 | 1010.7 |
| 20260906010004 | 88 | 0 | 0.0 | 0.0 | 0.00 | 0.00 | 0.00 | 67 | 1010.5 |
| 20260906005804 | 88 | 145 | 0.9 | 0.9 | 0.00 | 0.00 | 0.00 | 67 | 1010.4 |
| 20260906005605 | 88 | 149 | 0.9 | 1.7 | 0.00 | 0.00 | 0.00 | 67 | 1010.5 |
| 20260906005404 | 88 | 152 | 0.9 | 1.7 | 0.00 | 0.00 | 0.00 | 67 | 1010.6 |
| 20260906005225 | 88 | 150 | 0.9 | 1.7 | 0.00 | 0.00 | 0.00 | 67 | 1010.6 |
| 20260906005004 | 88 | 152 | 0.0 | 1.7 | 0.00 | 0.00 | 0.00 | 67 | 1010.4 |
| 20260906004804 | 88 | 152 | 0.0 | 1.7 | 0.00 | 0.00 | 0.00 | 67 | 1010.3 |
| 20260906004604 | 88 | 153 | 0.0 | 1.7 | 0.00 | 0.00 | 0.00 | 69 | 1010.4 |
| 20260906004404 | 88 | 151 | 0.0 | 1.7 | 0.00 | 0.00 | 0.00 | 69 | 1010.5 |
| 20260906004204 | 88 | 167 | 0.0 | 1.7 | 0.00 | 0.00 | 0.00 | 69 | 1010.6 |
| 20260906004004 | 88 | 0 | 0.0 | 0.0 | 0.00 | 0.00 | 0.00 | 69 | 1010.6 |
| 20260906003804 | 88 | 0 | 0.0 | 0.0 | 0.00 | 0.00 | 0.00 | 69 | 1010.6 |
| 20260906003604 | 88 | 0 | 0.0 | 0.0 | 0.00 | 0.00 | 0.00 | 68 | 1010.7 |
| 20260906003404 | 88 | 0 | 0.0 | 0.0 | 0.00 | 0.00 | 0.00 | 68 | 1010.8 |
| 20260906003204 | 88 | 0 | 0.0 | 0.0 | 0.00 | 0.00 | 0.00 | 68 | 1010.8 |
| 20260906003004 | 88 | 0 | 0.0 | 0.0 | 0.00 | 0.00 | 0.00 | 68 | 1010.8 |
| 20260906002804 | 89 | 0 | 0.0 | 0.0 | 0.00 | 0.00 | 0.00 | 68 | 1010.8 |
| 20260906002625 | 89 | 0 | 0.0 | 0.0 | 0.00 | 0.00 | 0.00 | 68 | 1010.8 |
| 20260906002404 | 89 | 0 | 0.0 | 0.0 | 0.00 | 0.00 | 0.00 | 67 | 1010.9 |
| 20260906002204 | 89 | 91 | 0.0 | 0.9 | 0.00 | 0.00 | 0.00 | 67 | 1010.9 |
| 20260906002004 | 89 | 91 | 0.0 | 0.9 | 0.00 | 0.00 | 0.00 | 68 | 1011.0 |
| 20260906001804 | 89 | 91 | 0.0 | 0.9 | 0.00 | 0.00 | 0.00 | 67 | 1011.1 |
| 20260906001625 | 89 | 91 | 0.0 | 0.9 | 0.00 | 0.00 | 0.00 | 67 | 1011.1 |
| 20260906001404 | 89 | 91 | 0.0 | 0.9 | 0.00 | 0.00 | 0.00 | 67 | 1011.0 |
| 20260906001204 | 90 | 0 | 0.0 | 0.0 | 0.00 | 0.00 | 0.00 | 67 | 1011.0 |
| 20260906001004 | 90 | 0 | 0.0 | 0.0 | 0.00 | 0.00 | 0.00 | 66 | 1011.1 |
| 20260906000804 | 90 | 0 | 0.0 | 0.0 | 0.00 | 0.00 | 0.00 | 66 | 1011.1 |
| 20260906000604 | 90 | 91 | 0.0 | 0.9 | 0.00 | 0.00 | 0.00 | 66 | 1011.1 |
| 20260906000404 | 90 | 91 | 0.0 | 0.9 | 0.00 | 0.00 | 0.00 | 66 | 1011.1 |
| 20260906000204 | 90 | 91 | 0.0 | 0.9 | 0.00 | 0.00 | 0.00 | 65 | 1011.2 |
| 20260906000004 | 91 | 91 | 0.0 | 0.9 | 0.00 | 0.00 | 0.00 | 65 | 1011.1 |
| 20260905235804 | 91 | 91 | 0.0 | 0.9 | 0.00 | 0.00 | 0.00 | 65 | 1011.2 |
| 20260905235604 | 91 | 91 | 0.0 | 0.9 | 0.00 | 0.00 | 0.00 | 64 | 1011.1 |
| 20260905235425 | 91 | 91 | 0.0 | 0.9 | 0.00 | 0.00 | 0.00 | 64 | 1011.1 |
| 20260905235204 | 91 | 91 | 0.0 | 0.9 | 0.00 | 0.00 | 0.00 | 64 | 1011.0 |
| 20260905235025 | 91 | 91 | 0.9 | 0.9 | 0.00 | 0.00 | 0.00 | 64 | 1011.0 |
| 20260905234804 | 91 | 90 | 0.9 | 1.7 | 0.00 | 0.00 | 0.00 | 64 | 1011.0 |
| 20260905234604 | 91 | 99 | 0.9 | 1.7 | 0.00 | 0.00 | 0.00 | 63 | 1011.0 |
| 20260905234425 | 92 | 106 | 0.9 | 2.6 | 0.00 | 0.00 | 0.00 | 63 | 1011.0 |
| 20260905234204 | 92 | 113 | 0.9 | 2.6 | 0.00 | 0.00 | 0.00 | 63 | 1011.0 |
| 20260905234004 | 92 | 114 | 0.9 | 2.6 | 0.00 | 0.00 | 0.00 | 63 | 1011.1 |
| 20260905233825 | 92 | 115 | 0.9 | 2.6 | 0.00 | 0.00 | 0.00 | 62 | 1011.1 |
| 20260905233604 | 93 | 119 | 0.9 | 2.6 | 0.00 | 0.00 | 0.00 | 62 | 1011.0 |
| 20260905233404 | 93 | 122 | 0.9 | 2.6 | 0.00 | 0.00 | 0.00 | 62 | 1010.9 |
| 20260905233225 | 93 | 115 | 0.9 | 1.7 | 0.00 | 0.00 | 0.00 | 62 | 1010.9 |